KLM421 EHAM-LOWI

Flight info

Callsign KLM421
Flight time 1h 3m
Altitude 33000
Route EDUPO Z739 MISGO DCT ASBON DCT TUSUK DCT ULNOK L607 TEDGO DCT BATUB/N0447F310 M738 MADEB MADEB1B
Aircraft A21N/M-SDE2E3FGHIRWXY/LB1

Departure

Time 2026-05-07 13:33
Airport Amsterdam Airport Schiphol (EHAM)

Arrival

Time 2026-05-07 14:37
Airport Innsbruck Airport (LOWI)
Time Latitude Longitude Altitude Speed Heading
2026-05-07 13:12 52.30793 4.77357 1 ft 0 kts 184°
2026-05-07 13:20 52.30806 4.77359 1 ft 3 kts 184°
2026-05-07 13:20 52.30823 4.77350 1 ft 3 kts 124°
2026-05-07 13:20 52.30827 4.77336 1 ft 0 kts 97°
2026-05-07 13:22 52.30827 4.77341 1 ft 2 kts 92°
2026-05-07 13:23 52.30830 4.77425 1 ft 11 kts 87°
2026-05-07 13:23 52.30849 4.77571 1 ft 14 kts 45°
2026-05-07 13:23 52.30943 4.77612 0 ft 16 kts
2026-05-07 13:23 52.31066 4.77621 1 ft 20 kts
2026-05-07 13:24 52.31216 4.77638 1 ft 23 kts
2026-05-07 13:24 52.31380 4.77651 1 ft 21 kts
2026-05-07 13:24 52.31508 4.77565 1 ft 21 kts 316°
2026-05-07 13:24 52.31577 4.77350 0 ft 23 kts 271°
2026-05-07 13:25 52.31568 4.77061 0 ft 28 kts 267°
2026-05-07 13:25 52.31557 4.76724 0 ft 32 kts 266°
2026-05-07 13:25 52.31548 4.76425 1 ft 27 kts 266°
2026-05-07 13:25 52.31536 4.76115 1 ft 28 kts 266°
2026-05-07 13:26 52.31524 4.75772 1 ft 32 kts 267°
2026-05-07 13:26 52.31510 4.75385 0 ft 36 kts 266°
2026-05-07 13:26 52.31498 4.75025 0 ft 25 kts 266°
2026-05-07 13:26 52.31492 4.74874 1 ft 0 kts 266°
2026-05-07 13:27 52.31491 4.74839 1 ft 7 kts 266°
2026-05-07 13:27 52.31491 4.74722 1 ft 12 kts 286°
2026-05-07 13:27 52.31507 4.74690 1 ft 5 kts 320°
2026-05-07 13:27 52.31534 4.74667 1 ft 2 kts 340°
2026-05-07 13:28 52.31546 4.74663 1 ft 1 kts 352°
2026-05-07 13:28 52.31576 4.74660 2 ft 6 kts 357°
2026-05-07 13:28 52.31636 4.74668 3 ft 11 kts 15°
2026-05-07 13:28 52.31665 4.74718 3 ft 0 kts 75°
2026-05-07 13:29 52.31666 4.74720 3 ft 1 kts 77°
2026-05-07 13:29 52.31666 4.74725 3 ft 0 kts 81°
2026-05-07 13:33 52.31678 4.74880 -1 ft 41 kts 84°
2026-05-07 13:33 52.31706 4.75761 2 ft 115 kts 87°
2026-05-07 13:33 52.31760 4.77418 133 ft 165 kts 86°
2026-05-07 13:33 52.31800 4.79279 1035 ft 169 kts 84°
2026-05-07 13:34 52.31878 4.81361 1450 ft 199 kts 83°
2026-05-07 13:34 52.31978 4.86462 2494 ft 245 kts 99°
2026-05-07 13:34 52.31467 4.89170 3404 ft 252 kts 110°
2026-05-07 13:35 52.30774 4.91841 4289 ft 258 kts 113°
2026-05-07 13:35 52.30038 4.94559 5127 ft 264 kts 113°
2026-05-07 13:35 52.29387 4.97370 5771 ft 266 kts 108°
2026-05-07 13:35 52.28848 5.00274 6090 ft 268 kts 106°
2026-05-07 13:36 52.28334 5.03225 6659 ft 273 kts 106°
2026-05-07 13:36 52.27816 5.06222 7546 ft 275 kts 106°
2026-05-07 13:36 52.27291 5.09242 8407 ft 279 kts 107°
2026-05-07 13:36 52.26758 5.12304 9248 ft 284 kts 107°
2026-05-07 13:37 52.26212 5.15432 10087 ft 288 kts 107°
2026-05-07 13:37 52.25655 5.18609 10582 ft 305 kts 107°
2026-05-07 13:37 52.25047 5.22067 10897 ft 328 kts 107°
2026-05-07 13:37 52.24254 5.25666 11182 ft 349 kts 118°
2026-05-07 13:38 52.22965 5.29127 11586 ft 363 kts 125°
2026-05-07 13:38 52.21497 5.32533 12268 ft 370 kts 126°
2026-05-07 13:38 52.19988 5.35967 13047 ft 375 kts 126°
2026-05-07 13:38 52.18463 5.39442 13820 ft 379 kts 126°
2026-05-07 13:39 52.16918 5.42968 14492 ft 385 kts 126°
2026-05-07 13:39 52.15353 5.46548 15159 ft 389 kts 126°
2026-05-07 13:39 52.13773 5.50162 15826 ft 394 kts 126°
2026-05-07 13:39 52.12176 5.53811 16510 ft 397 kts 126°
2026-05-07 13:40 52.10565 5.57489 17170 ft 401 kts 126°
2026-05-07 13:40 52.08939 5.61194 17834 ft 404 kts 126°
2026-05-07 13:40 52.07319 5.64884 18428 ft 408 kts 126°
2026-05-07 13:40 52.05581 5.68567 18964 ft 412 kts 130°
2026-05-07 13:41 52.03717 5.72126 19515 ft 415 kts 131°
2026-05-07 13:41 52.01820 5.75664 20075 ft 417 kts 132°
2026-05-07 13:41 51.99902 5.79228 20634 ft 420 kts 132°
2026-05-07 13:41 51.97968 5.82807 21180 ft 423 kts 133°
2026-05-07 13:42 51.95876 5.86185 21718 ft 426 kts 137°
2026-05-07 13:42 51.93701 5.89459 22256 ft 428 kts 139°
2026-05-07 13:42 51.91473 5.92692 22787 ft 431 kts 140°
2026-05-07 13:42 51.89207 5.95906 23285 ft 434 kts 140°
2026-05-07 13:43 51.86921 5.99115 23739 ft 437 kts 140°
2026-05-07 13:43 51.84614 6.02340 24115 ft 439 kts 140°
2026-05-07 13:43 51.82291 6.05588 24508 ft 442 kts 140°
2026-05-07 13:43 51.79957 6.08854 24907 ft 444 kts 140°
2026-05-07 13:44 51.77625 6.12120 25286 ft 447 kts 140°
2026-05-07 13:44 51.75294 6.15383 25656 ft 449 kts 140°
2026-05-07 13:44 51.72895 6.18740 26025 ft 451 kts 140°
2026-05-07 13:44 51.70545 6.22025 26392 ft 454 kts 140°
2026-05-07 13:45 51.68153 6.25364 26721 ft 456 kts 140°
2026-05-07 13:45 51.65748 6.28717 27063 ft 458 kts 140°
2026-05-07 13:45 51.63338 6.32070 27484 ft 458 kts 140°
2026-05-07 13:45 51.60923 6.35425 27870 ft 458 kts 140°
2026-05-07 13:46 51.58511 6.38774 28319 ft 457 kts 140°
2026-05-07 13:46 51.56106 6.42106 28740 ft 457 kts 140°
2026-05-07 13:46 51.53704 6.45429 29186 ft 455 kts 140°
2026-05-07 13:46 51.51304 6.48745 29602 ft 455 kts 140°
2026-05-07 13:47 51.48906 6.52054 29993 ft 454 kts 140°
2026-05-07 13:47 51.46505 6.55361 30322 ft 454 kts 140°
2026-05-07 13:47 51.44137 6.58618 30639 ft 454 kts 140°
2026-05-07 13:47 51.41742 6.61907 30967 ft 453 kts 140°
2026-05-07 13:48 51.39351 6.65186 31277 ft 452 kts 140°
2026-05-07 13:48 51.36963 6.68456 31555 ft 452 kts 140°
2026-05-07 13:48 51.34570 6.71728 31804 ft 453 kts 140°
2026-05-07 13:48 51.32170 6.75005 32074 ft 454 kts 140°
2026-05-07 13:49 51.29770 6.78278 32368 ft 453 kts 140°
2026-05-07 13:49 51.27371 6.81545 32642 ft 453 kts 140°
2026-05-07 13:49 51.24965 6.84817 32901 ft 453 kts 140°
2026-05-07 13:49 51.22565 6.88076 33040 ft 455 kts 140°
2026-05-07 13:50 51.20152 6.91349 33047 ft 454 kts 140°
2026-05-07 13:50 51.15343 6.97856 33044 ft 453 kts 140°
2026-05-07 13:51 51.10530 7.04350 33040 ft 454 kts 140°
2026-05-07 13:51 51.05700 7.10848 33051 ft 455 kts 140°
2026-05-07 13:52 51.00900 7.17287 33044 ft 455 kts 140°
2026-05-07 13:52 50.96060 7.23763 33046 ft 455 kts 140°
2026-05-07 13:53 50.91207 7.30237 33049 ft 454 kts 140°
2026-05-07 13:53 50.86361 7.36684 33045 ft 455 kts 140°
2026-05-07 13:54 50.81542 7.43078 33040 ft 455 kts 140°
2026-05-07 13:54 50.76687 7.49500 33042 ft 455 kts 140°
2026-05-07 13:55 50.71735 7.55732 33034 ft 455 kts 146°
2026-05-07 13:55 50.66500 7.61342 33030 ft 454 kts 147°
2026-05-07 13:56 50.61215 7.66804 33031 ft 454 kts 147°
2026-05-07 13:56 50.55907 7.72249 33034 ft 456 kts 148°
2026-05-07 13:57 50.50620 7.77675 33038 ft 456 kts 148°
2026-05-07 13:57 50.45303 7.83127 33038 ft 456 kts 147°
2026-05-07 13:58 50.39990 7.88566 33040 ft 454 kts 147°
2026-05-07 13:58 50.34691 7.93976 33039 ft 454 kts 148°
2026-05-07 13:59 50.29386 7.99376 33038 ft 455 kts 148°
2026-05-07 13:59 50.24117 8.04725 33039 ft 455 kts 148°
2026-05-07 14:00 50.18803 8.10104 33041 ft 455 kts 148°
2026-05-07 14:00 50.13488 8.15457 33045 ft 455 kts 148°
2026-05-07 14:01 50.08077 8.20589 33048 ft 455 kts 150°
2026-05-07 14:01 50.02620 8.25592 33047 ft 454 kts 150°
2026-05-07 14:02 49.97173 8.30581 33045 ft 454 kts 150°
2026-05-07 14:02 49.91723 8.35586 33038 ft 454 kts 150°
2026-05-07 14:03 49.86339 8.40605 33038 ft 455 kts 146°
2026-05-07 14:03 49.81448 8.46854 33039 ft 456 kts 139°
2026-05-07 14:04 49.76792 8.53549 33057 ft 456 kts 137°
2026-05-07 14:04 49.71750 8.59444 33042 ft 454 kts 153°
2026-05-07 14:04 49.68862 8.61377 33044 ft 452 kts 164°
2026-05-07 14:05 49.65826 8.62614 33041 ft 451 kts 168°
2026-05-07 14:05 49.59666 8.64461 33048 ft 451 kts 172°
2026-05-07 14:06 49.53479 8.66071 33042 ft 451 kts 172°
2026-05-07 14:06 49.47355 8.67885 33056 ft 452 kts 165°
2026-05-07 14:07 49.41478 8.71355 33046 ft 454 kts 158°
2026-05-07 14:07 49.35715 8.75322 33048 ft 454 kts 157°
2026-05-07 14:08 49.29970 8.79373 33047 ft 454 kts 157°
2026-05-07 14:08 49.24227 8.83386 33038 ft 454 kts 157°
2026-05-07 14:09 49.18463 8.87373 33038 ft 454 kts 157°
2026-05-07 14:09 49.12699 8.91339 33035 ft 454 kts 158°
2026-05-07 14:10 49.06934 8.95294 33029 ft 453 kts 158°
2026-05-07 14:10 49.01179 8.99234 33031 ft 454 kts 158°
2026-05-07 14:11 48.95453 9.03145 33021 ft 454 kts 158°
2026-05-07 14:11 48.89688 9.07074 33023 ft 454 kts 158°
2026-05-07 14:12 48.83925 9.10990 33022 ft 454 kts 158°
2026-05-07 14:12 48.78154 9.14902 33025 ft 454 kts 158°
2026-05-07 14:13 48.73361 9.18144 33020 ft 454 kts 158°
2026-05-07 14:13 48.67593 9.22037 33018 ft 454 kts 158°
2026-05-07 14:14 48.61796 9.25819 33017 ft 453 kts 162°
2026-05-07 14:14 48.55864 9.29012 33024 ft 452 kts 163°
2026-05-07 14:15 48.49907 9.32070 33013 ft 452 kts 163°
2026-05-07 14:15 48.43942 9.35101 33009 ft 452 kts 163°
2026-05-07 14:16 48.38014 9.38115 33016 ft 452 kts 163°
2026-05-07 14:16 48.32048 9.41150 33013 ft 452 kts 163°
2026-05-07 14:17 48.26084 9.44180 33001 ft 452 kts 163°
2026-05-07 14:17 48.20116 9.47204 33014 ft 453 kts 163°
2026-05-07 14:18 48.14133 9.50226 33017 ft 453 kts 163°
2026-05-07 14:18 48.08154 9.53240 33023 ft 453 kts 163°
2026-05-07 14:19 48.02282 9.56497 33016 ft 456 kts 153°
2026-05-07 14:19 47.96943 9.61643 32754 ft 455 kts 147°
2026-05-07 14:19 47.94380 9.64365 32364 ft 447 kts 146°
2026-05-07 14:20 47.91908 9.67064 32137 ft 435 kts 145°
2026-05-07 14:20 47.89506 9.69705 31937 ft 423 kts 145°
2026-05-07 14:20 47.87170 9.72268 31697 ft 412 kts 146°
2026-05-07 14:20 47.84880 9.74765 31335 ft 405 kts 146°
2026-05-07 14:21 47.82614 9.77217 30905 ft 401 kts 145°
2026-05-07 14:21 47.80362 9.79641 30460 ft 397 kts 145°
2026-05-07 14:21 47.78131 9.82034 30065 ft 393 kts 145°
2026-05-07 14:21 47.75925 9.84396 29601 ft 390 kts 145°
2026-05-07 14:22 47.73736 9.86738 29180 ft 386 kts 145°
2026-05-07 14:22 47.71566 9.89057 28833 ft 382 kts 145°
2026-05-07 14:22 47.69419 9.91350 28515 ft 379 kts 145°
2026-05-07 14:22 47.67284 9.93628 28214 ft 376 kts 145°
2026-05-07 14:23 47.65193 9.95857 27929 ft 373 kts 146°
2026-05-07 14:23 47.63065 9.98122 27680 ft 371 kts 146°
2026-05-07 14:23 47.61004 10.00316 27467 ft 369 kts 146°
2026-05-07 14:23 47.58925 10.02525 27278 ft 367 kts 146°
2026-05-07 14:24 47.56854 10.04724 27100 ft 365 kts 146°
2026-05-07 14:24 47.54789 10.06914 26798 ft 365 kts 146°
2026-05-07 14:24 47.52696 10.09131 25932 ft 375 kts 146°
2026-05-07 14:24 47.50543 10.11408 25134 ft 383 kts 146°
2026-05-07 14:25 47.48377 10.13697 24574 ft 383 kts 146°
2026-05-07 14:25 47.46218 10.15993 24091 ft 381 kts 144°
2026-05-07 14:25 47.44299 10.18624 23595 ft 382 kts 131°
2026-05-07 14:25 47.42740 10.21804 22999 ft 381 kts 123°
2026-05-07 14:26 47.41347 10.25118 22466 ft 379 kts 122°
2026-05-07 14:26 47.40003 10.28444 21976 ft 376 kts 121°
2026-05-07 14:26 47.38678 10.31757 21467 ft 373 kts 121°
2026-05-07 14:26 47.37368 10.35039 20989 ft 370 kts 121°
2026-05-07 14:27 47.36067 10.38301 20506 ft 368 kts 121°
2026-05-07 14:27 47.34775 10.41538 20036 ft 365 kts 121°
2026-05-07 14:27 47.33489 10.44759 19399 ft 363 kts 121°
2026-05-07 14:27 47.32237 10.47892 19006 ft 348 kts 121°
2026-05-07 14:28 47.31026 10.50919 18521 ft 338 kts 121°
2026-05-07 14:28 47.29832 10.53901 17600 ft 341 kts 121°
2026-05-07 14:28 47.28657 10.56982 16390 ft 351 kts 113°
2026-05-07 14:28 47.28194 10.60542 15098 ft 361 kts 88°
2026-05-07 14:29 47.28465 10.64251 13840 ft 368 kts 81°
2026-05-07 14:29 47.28836 10.68007 12311 ft 374 kts 82°
2026-05-07 14:29 47.29161 10.71854 10729 ft 382 kts 83°
2026-05-07 14:29 47.29437 10.75766 9139 ft 384 kts 84°
2026-05-07 14:30 47.29673 10.79667 7655 ft 380 kts 84°
2026-05-07 14:30 47.29881 10.83426 6726 ft 363 kts 84°
2026-05-07 14:30 47.30068 10.87000 6221 ft 336 kts 85°
2026-05-07 14:30 47.30236 10.90324 6025 ft 305 kts 85°
2026-05-07 14:31 47.30382 10.93252 5855 ft 279 kts 85°
2026-05-07 14:31 47.30519 10.96023 5559 ft 265 kts 85°
2026-05-07 14:31 47.30648 10.98660 5418 ft 251 kts 85°
2026-05-07 14:31 47.30768 11.01138 5335 ft 233 kts 85°
2026-05-07 14:32 47.30880 11.03461 5101 ft 223 kts 84°
2026-05-07 14:32 47.30950 11.05725 4712 ft 220 kts 91°
2026-05-07 14:32 47.30711 11.07961 4298 ft 221 kts 107°
2026-05-07 14:32 47.30136 11.10036 4024 ft 213 kts 114°
2026-05-07 14:33 47.29517 11.11924 3904 ft 197 kts 115°
2026-05-07 14:33 47.28935 11.13662 3766 ft 182 kts 115°
2026-05-07 14:33 47.28397 11.15272 3577 ft 167 kts 115°
2026-05-07 14:33 47.27912 11.16731 3340 ft 155 kts 115°
2026-05-07 14:34 47.27447 11.18133 2991 ft 151 kts 114°
2026-05-07 14:34 47.26994 11.19508 2731 ft 141 kts 114°
2026-05-07 14:34 47.26590 11.20880 2806 ft 165 kts 109°
2026-05-07 14:34 47.26284 11.22572 2963 ft 160 kts 103°
2026-05-07 14:35 47.26006 11.24018 2917 ft 135 kts 106°
2026-05-07 14:35 47.25709 11.25469 2814 ft 166 kts 103°
2026-05-07 14:35 47.25470 11.27103 2729 ft 168 kts 97°
2026-05-07 14:35 47.25400 11.28805 2487 ft 165 kts 85°
2026-05-07 14:36 47.25560 11.30393 2369 ft 147 kts 79°
2026-05-07 14:36 47.25732 11.31815 2147 ft 137 kts 79°
2026-05-07 14:36 47.25883 11.33146 1930 ft 127 kts 79°
2026-05-07 14:36 47.25994 11.34149 1899 ft 50 kts 81°
2026-05-07 14:37 47.26023 11.34406 1899 ft 22 kts 80°
2026-05-07 14:37 47.26074 11.34888 1903 ft 24 kts 80°
2026-05-07 14:37 47.26101 11.35133 1901 ft 25 kts 81°
2026-05-07 14:38 47.26054 11.35265 1910 ft 11 kts 168°
2026-05-07 14:38 47.25985 11.35278 1907 ft 3 kts 174°
2026-05-07 14:38 47.25982 11.35278 1908 ft 0 kts 173°
2026-05-07 14:40 47.25967 11.35281 1897 ft 6 kts 173°
2026-05-07 14:40 47.25932 11.35286 1906 ft 1 kts 185°
2026-05-07 14:40 47.25919 11.35273 1906 ft 5 kts 212°
2026-05-07 14:40 47.25885 11.35241 1899 ft 7 kts 195°
2026-05-07 14:41 47.25863 11.35244 1904 ft 0 kts 168°